Location: Newark
(48.7653°N, 0.1958°W)
Time: 16:34:01
(UTC+00:00)

ISS - Visible Passes

Search period start: 14 December 2019 00:00
Search period end: 24 December 2019 00:00
Orbit: 411 x 421 km, 51.6° (Epoch: 15 December)

Date Brightness Start Highest point End Pass type
(mag) Time Alt. Az. Time Alt. Az. Time Alt. Az.
21 Dec -1.0 06:54:41 10° SSW 06:57:17 22° SE 06:59:54 10° E visible
22 Dec -0.6 06:07:05 10° S 06:08:56 14° SE 06:10:47 10° ESE visible
23 Dec -2.6 06:53:28 10° SW 06:56:40 45° SSE 06:59:52 10° ENE visible
